(129505) = 1995 SE24 = 2001 CX14

Discovered at Kitt Peak on 1995-09-19 by Spacewatch.

Orbit

Orbit type: Main Belt

Note: WebGL enabled browser required.

epoch2024-03-31.0
epoch JD2460400.5
perihelion date2026-05-03.79839
perihelion JD2461164.29839
argument of perihelion (°)57.19321
ascending node (°)24.64057
inclination (°)4.64525
eccentricity0.1963046
perihelion distance (AU)2.1178344
Tisserand w.r.t. Jupiter3.4
ΔV w.r.t. Earth (km/sec)9.3
semimajor axis (AU)2.6351207
mean anomaly (°)184.01250
mean daily motion (°/day)0.23041090
aphelion distance (AU)3.152
period (years)4.28
P-vector [x]0.14319650
P-vector [y]0.87880025
P-vector [z]0.45519764
Q-vector [x]-0.98911813
Q-vector [y]0.11138594
Q-vector [z]0.09611707
absolute magnitude16.43
phase slope0.15
uncertainty0
referenceMPEC 2024-C115
observations used621
oppositions16
arc length (days)10135
first opposition used1995
last opposition used2023
residual rms (arc-secs)0.72
perturbers coarse indicatorM-v
perturbers precise indicator003Ek
first observation date used1995-09-19.0
last observation date used2023-06-19.0
computer nameMPCLINUX
JD of orbit computation2456819.603661
perihelion JD uncertainty (days)8.6768E-05
argument of perihelion uncertainty (°)5.2996E-05
ascending node uncertainty (°)4.7471E-05
inclination uncertainty (°)6.1253E-06
eccentricity uncertainty 3.2216E-08
perihelion distance uncertainty (AU)8.4088E-08
Minimum Orbit Intersection Distances (in AU)
for orbit epoch: 2460200.5, reference: E2024-CB5
Mercury1.81065
Venus1.40034
Earth1.13713
Mars0.54976
Jupiter2.11249
Saturn6.90975
Uranus15.7521
Neptune27.2474

Observations

631 total observations over interval: 1995 09 19.36091 – 2023 06 19.305625
These data are available for download (format description).

Date (UT) J2000 RA J2000 Dec Magn Location Ref
1995 09 19.36091 00 42 59.10 +01 35 10.4 19.7 V 691 – Steward Observatory, Kitt Peak-Spacewatch MPC 25836
1995 09 19.38176 00 42 58.05 +01 35 06.1   691 – Steward Observatory, Kitt Peak-Spacewatch MPC 25836
1995 09 19.40349 00 42 56.94 +01 35 01.5   691 – Steward Observatory, Kitt Peak-Spacewatch MPC 25836
1995 09 25.36921 00 37 51.54 +01 13 56.1   691 – Steward Observatory, Kitt Peak-Spacewatch MPC 25836
1995 09 25.39010 00 37 50.37 +01 13 51.5 19.4 V 691 – Steward Observatory, Kitt Peak-Spacewatch MPC 25836
1995 09 25.41096 00 37 49.22 +01 13 47.0   691 – Steward Observatory, Kitt Peak-Spacewatch MPC 25836
1995 09 30.29894 00 33 22.32 +00 55 49.0   691 – Steward Observatory, Kitt Peak-Spacewatch MPC 25836
1995 09 30.32112 00 33 21.05 +00 55 44.0 19.4 V 691 – Steward Observatory, Kitt Peak-Spacewatch MPC 25836
1995 09 30.34225 00 33 19.83 +00 55 39.3   691 – Steward Observatory, Kitt Peak-Spacewatch MPC 25836
1997 02 07.48574 12 03 46.46 +04 39 13.1 22.2 V 691 – Steward Observatory, Kitt Peak-Spacewatch MPS 79460
1997 02 07.50670 12 03 45.89 +04 39 16.4 21.8 V 691 – Steward Observatory, Kitt Peak-Spacewatch MPS 79460
1997 02 07.52779 12 03 45.39 +04 39 19.4 21.4 V 691 – Steward Observatory, Kitt Peak-Spacewatch MPS 79460
2001 01 04.38036 09 42 42.43 +21 42 16.0 19.2   704 – Lincoln Laboratory ETS, New Mexico MPS 26318
2001 01 04.39552 09 42 42.02 +21 42 19.3 19.0   704 – Lincoln Laboratory ETS, New Mexico MPS 26318
2001 01 04.41067 09 42 41.64 +21 42 22.8 19.2   704 – Lincoln Laboratory ETS, New Mexico MPS 26318
2001 01 04.42582 09 42 41.22 +21 42 27.4 19.6   704 – Lincoln Laboratory ETS, New Mexico MPS 26318
2001 01 04.44099 09 42 40.88 +21 42 30.9 20.0   704 – Lincoln Laboratory ETS, New Mexico MPS 26318
2001 01 19.33587 09 33 17.06 +22 46 25.0 19.1   704 – Lincoln Laboratory ETS, New Mexico MPS 26318
2001 01 19.35196 09 33 16.29 +22 46 28.5 19.5   704 – Lincoln Laboratory ETS, New Mexico MPS 26318
2001 01 19.36734 09 33 15.49 +22 46 33.2 19.0   704 – Lincoln Laboratory ETS, New Mexico MPS 26318
2001 01 19.38274 09 33 14.62 +22 46 36.8 20.0   704 – Lincoln Laboratory ETS, New Mexico MPS 26318
2001 01 19.39813 09 33 13.88 +22 46 41.3 18.8   704 – Lincoln Laboratory ETS, New Mexico MPS 26318
2001 02 01.34044 09 20 57.73 +23 40 50.4 18.8   704 – Lincoln Laboratory ETS, New Mexico MPS 25781
2001 02 01.35530 09 20 56.78 +23 40 53.6 19.1   704 – Lincoln Laboratory ETS, New Mexico MPS 25781
2001 02 01.38502 09 20 54.87 +23 40 59.7 19.0   704 – Lincoln Laboratory ETS, New Mexico MPS 25781
2001 02 02.28911 09 19 59.84 +23 44 15.4 18.5 R 699 – Lowell Observatory-LONEOS MPS 26318
2001 02 02.31741 09 19 58.08 +23 44 21.7   699 – Lowell Observatory-LONEOS MPS 26318
2001 02 02.34557 09 19 56.27 +23 44 26.9   699 – Lowell Observatory-LONEOS MPS 26318
2001 02 02.37420 09 19 54.48 +23 44 32.2   699 – Lowell Observatory-LONEOS MPS 26318
2001 02 03.31373 09 18 57.01 +23 47 46.7 18.8   704 – Lincoln Laboratory ETS, New Mexico MPS 25781
2001 02 03.32873 09 18 56.03 +23 47 49.4 19.6   704 – Lincoln Laboratory ETS, New Mexico MPS 25781
2001 02 03.34357 09 18 55.15 +23 47 53.7 19.5   704 – Lincoln Laboratory ETS, New Mexico MPS 25781
2001 02 03.35841 09 18 54.18 +23 47 56.0 19.5   704 – Lincoln Laboratory ETS, New Mexico MPS 25781
2001 02 03.37326 09 18 53.16 +23 47 58.7 19.5   704 – Lincoln Laboratory ETS, New Mexico MPS 25781
2001 02 17.23880 09 05 19.91 +24 20 43.4 18.8   704 – Lincoln Laboratory ETS, New Mexico MPS 26318
2001 02 17.25279 09 05 19.08 +24 20 43.1 19.2   704 – Lincoln Laboratory ETS, New Mexico MPS 26318
2001 02 17.26667 09 05 18.31 +24 20 44.2 19.3   704 – Lincoln Laboratory ETS, New Mexico MPS 26318
2001 02 17.28052 09 05 17.49 +24 20 46.9 19.6   704 – Lincoln Laboratory ETS, New Mexico MPS 26318
2001 02 17.29444 09 05 16.78 +24 20 47.0 19.0   704 – Lincoln Laboratory ETS, New Mexico MPS 26318
2004 11 22.32597 05 54 50.24 +29 49 02.4 18.8   704 – Lincoln Laboratory ETS, New Mexico MPS 120301
2004 11 22.33834 05 54 49.78 +29 49 05.1 19.2   704 – Lincoln Laboratory ETS, New Mexico MPS 120301
2004 11 22.35062 05 54 49.26 +29 49 07.6 19.4   704 – Lincoln Laboratory ETS, New Mexico MPS 120301
2004 11 22.36291 05 54 48.77 +29 49 10.2 19.5   704 – Lincoln Laboratory ETS, New Mexico MPS 120301
2004 11 22.37520 05 54 48.32 +29 49 13.1 19.1   704 – Lincoln Laboratory ETS, New Mexico MPS 120301
2004 12 02.27705 05 47 11.77 +30 20 19.6 18.4   704 – Lincoln Laboratory ETS, New Mexico MPS 120301
2004 12 02.30177 05 47 10.41 +30 20 24.4 19.3   704 – Lincoln Laboratory ETS, New Mexico MPS 120301
2004 12 02.31433 05 47 09.66 +30 20 26.1 19.2   704 – Lincoln Laboratory ETS, New Mexico MPS 120301
2004 12 02.32654 05 47 09.01 +30 20 27.9 19.7   704 – Lincoln Laboratory ETS, New Mexico MPS 120301
2004 12 15.24727 05 34 00.40 +30 44 46.3 19.0   704 – Lincoln Laboratory ETS, New Mexico MPS 121528
2004 12 15.26009 05 33 59.53 +30 44 46.5 19.1   704 – Lincoln Laboratory ETS, New Mexico MPS 121528
2004 12 15.27341 05 33 58.69 +30 44 47.5 18.8   704 – Lincoln Laboratory ETS, New Mexico MPS 121528
2004 12 15.28624 05 33 57.79 +30 44 48.4 19.0   704 – Lincoln Laboratory ETS, New Mexico MPS 121528
2004 12 15.29955 05 33 56.91 +30 44 49.1 18.7   704 – Lincoln Laboratory ETS, New Mexico MPS 121528
2004 12 17.24169 05 31 51.90 +30 46 30.3 18.6   704 – Lincoln Laboratory ETS, New Mexico MPS 122571
2004 12 17.25628 05 31 50.93 +30 46 30.4 18.9   704 – Lincoln Laboratory ETS, New Mexico MPS 122571
2004 12 17.26985 05 31 49.99 +30 46 31.7 18.8   704 – Lincoln Laboratory ETS, New Mexico MPS 122571
2004 12 17.28354 05 31 49.08 +30 46 32.0 19.1   704 – Lincoln Laboratory ETS, New Mexico MPS 122571
2004 12 17.29704 05 31 48.18 +30 46 32.5 19.0   704 – Lincoln Laboratory ETS, New Mexico MPS 122571
2004 12 18.28666 05 30 44.66 +30 47 11.6 18.8   704 – Lincoln Laboratory ETS, New Mexico MPS 122571
2004 12 18.30153 05 30 43.62 +30 47 11.8 18.9   704 – Lincoln Laboratory ETS, New Mexico MPS 122571
2004 12 18.31640 05 30 42.70 +30 47 12.4 18.9   704 – Lincoln Laboratory ETS, New Mexico MPS 122571
2004 12 18.33540 05 30 41.36 +30 47 12.4 19.1   704 – Lincoln Laboratory ETS, New Mexico MPS 122571
2004 12 18.34886 05 30 40.45 +30 47 13.3 18.9   704 – Lincoln Laboratory ETS, New Mexico MPS 122571
2006 03 26.40137 14 32 25.67 -15 28 14.1 21.1 V 691 – Steward Observatory, Kitt Peak-Spacewatch MPS 166883
2006 03 26.41869 14 32 25.04 -15 28 12.9 21.2 V 691 – Steward Observatory, Kitt Peak-Spacewatch MPS 166883
2006 03 26.43601 14 32 24.41 -15 28 11.5 21.0 V 691 – Steward Observatory, Kitt Peak-Spacewatch MPS 166883
2006 05 02.29016 14 01 28.56 -13 46 17.0 20.6 V G96 – Mt. Lemmon Survey MPS 170716
2006 05 02.29477 14 01 28.27 -13 46 15.6 20.4 V G96 – Mt. Lemmon Survey MPS 170716
2006 05 02.29934 14 01 27.98 -13 46 14.6 20.7 V G96 – Mt. Lemmon Survey MPS 170716
2006 05 02.30377 14 01 27.80 -13 46 14.0 20.9 V G96 – Mt. Lemmon Survey MPS 170716
2008 09 22.34775 02 20 00.38 +13 30 13.5 19.1 V G96 – Mt. Lemmon Survey MPS 257552
2008 09 22.35727 02 20 00.16 +13 30 13.9 19.6 V G96 – Mt. Lemmon Survey MPS 257552
2008 09 22.36689 02 19 59.95 +13 30 14.1 19.7 V G96 – Mt. Lemmon Survey MPS 257552
2008 09 22.37647 02 19 59.73 +13 30 14.2 19.9 V G96 – Mt. Lemmon Survey MPS 257552
2008 09 22.38006 02 19 59.63 +13 30 14.8 19.9 V 691 – Steward Observatory, Kitt Peak-Spacewatch MPS 257552
2008 09 22.40114 02 19 59.17 +13 30 15.6 19.6 V 691 – Steward Observatory, Kitt Peak-Spacewatch MPS 257552
2008 09 22.41878 02 19 58.77 +13 30 16.3 19.6 V 691 – Steward Observatory, Kitt Peak-Spacewatch MPS 257552
2008 09 24.29512 02 19 17.90 +13 31 14.4 19.9   704 – Lincoln Laboratory ETS, New Mexico MPS 257552
2008 09 24.30707 02 19 17.64 +13 31 13.9 20.4   704 – Lincoln Laboratory ETS, New Mexico MPS 257552
2008 09 24.31903 02 19 17.27 +13 31 14.4 20.3   704 – Lincoln Laboratory ETS, New Mexico MPS 257552
2008 09 24.33101 02 19 17.05 +13 31 15.5 21.0   704 – Lincoln Laboratory ETS, New Mexico MPS 257552
2008 09 26.32038 02 18 26.47 +13 31 47.5   691 – Steward Observatory, Kitt Peak-Spacewatch MPS 257552
2008 09 26.33800 02 18 25.96 +13 31 47.3   691 – Steward Observatory, Kitt Peak-Spacewatch MPS 257552
